[[{"header":{"parameterUnit":"m.s-1","parameterCategory":1,"la1":30.2991,"la2":30.254,"lo1":-89.0895,"lo2":-89.0444,"dx":0.0017,"dy":0.0017,"nx":28,"ny":28,"refTime":"2022-11-05T15:00:00:Z","depth":0,"parameterNumber":2,"parameterNumberName":"U-component_of_WINDS"},"data":[0,0,0,0,0,0,0,0,0,0,0,0,0,0,0,0,0,0,0,0,0,0,0,0,0,0,0,0,0,0,0,0,0,0,0,0,0,0,0,0,0,0,0,0,0,0,0,0,0,0,0,0,0,0,0,0,0,0,-2.591,-2.591,0,-2.5945,-2.5945,-2.5946,-2.5916,-2.5915,-2.5914,-2.5913,-2.5947,-2.5949,-2.5951,0,0,0,0,0,0,0,0,0,0,0,0,0,-2.5817,-2.5819,-2.591,-2.591,-2.5911,-2.5945,-2.5945,-2.5946,-2.5917,-2.5915,-2.5914,-2.5912,-2.5946,-2.5949,-2.5951,0,0,0,0,0,0,0,0,0,0,0,0,0,-2.5855,-2.582,-2.591,-2.59,-2.59,-2.5945,-2.5945,-2.5946,-2.5917,-2.5915,-2.5913,-2.5912,-2.5945,-2.5948,-2.5951,-2.6007,0,0,-2.5961,-2.5962,0,0,0,0,0,0,0,0,-2.5853,-2.5859,-2.5901,-2.5901,-2.5901,-2.5925,-2.5925,-2.5966,-2.5917,-2.591,-2.5913,-2.5911,-2.5941,-2.5944,-2.5955,-2.6008,-2.601,-2.5961,-2.5963,-2.5964,-2.5965,0,0,0,0,0,0,0,-2.5851,-2.5857,-2.5924,-2.5902,-2.5902,-2.5894,-2.5898,-2.5933,-2.5935,-2.5911,-2.5909,-2.5914,-2.594,-2.5952,-2.5955,-2.601,-2.5961,-2.5964,-2.5966,-2.5967,-2.6114,-2.6116,0,0,0,0,0,0,-2.5849,-2.5855,-2.5923,-2.5925,-2.5872,-2.5897,-2.5901,-2.5919,-2.5935,-2.5936,-2.5915,-2.5912,-2.5947,-2.5952,-2.5956,-2.6023,-2.5964,-2.5967,-2.5969,-2.6112,-2.6114,-2.6116,0,0,0,0,0,0,-2.5847,-2.5855,-2.5921,-2.5889,-2.5897,-2.5901,-2.5921,-2.592,-2.5932,-2.5938,-2.5938,-2.5926,-2.5946,-2.5952,-2.5995,-2.6024,-2.5968,-2.5971,-2.6109,-2.6112,-2.6115,-2.6157,0,0,0,0,0,0,-2.5845,-2.5855,-2.5876,-2.589,-2.5899,-2.5959,-2.5923,-2.5922,-2.5937,-2.5934,-2.5949,-2.5949,-2.5945,-2.5991,-2.5998,-2.6027,-2.5974,-2.6107,-2.6111,-2.6114,-2.6153,-2.6161,-2.6168,0,0,0,0,0,-2.5842,-2.5885,-2.5877,-2.5885,-2.5925,-2.5961,-2.5966,-2.5961,-2.594,-2.5961,-2.5966,-2.5949,-2.602,-2.5995,-2.6003,-2.6034,-2.6105,-2.6109,-2.6114,-2.615,-2.6159,-2.6168,0,0,0,0,0,0,-2.5873,-2.5887,-2.5878,-2.5928,-2.5944,-2.5956,-2.5982,-2.5971,-2.5993,-2.5988,-2.598,-2.5984,-2.603,-2.6036,-2.6009,-2.609,-2.6059,-2.6065,-2.6083,-2.6093,-2.61,-2.6097,-2.5976,0,0,0,0,0,-2.5886,-2.5914,-2.5925,-2.5967,-2.5976,-2.5978,-2.5993,-2.5988,-2.6004,-2.601,-2.6018,-2.6034,-2.606,-2.6077,-2.6101,-2.6155,-2.6158,-2.618,-2.6187,-2.6193,-2.6199,-2.6229,-2.6239,-2.6132,-2.6132,-2.6132,0,0,-2.5912,-2.5923,-2.5941,-2.5974,-2.5986,-2.6015,-2.5984,-2.6016,-2.6037,-2.6015,-2.6056,-2.6063,-2.608,-2.6129,-2.6151,-2.6136,-2.6229,-2.6199,-2.6204,-2.6206,-2.6235,-2.6245,-2.6254,-2.6135,-2.6134,-2.6134,0,0,-2.5975,-2.5986,-2.6024,-2.6037,-2.6056,-2.6058,-2.6067,-2.6082,-2.6086,-2.6128,-2.6112,-2.6138,-2.6183,-2.6196,-2.6208,-2.628,-2.6266,-2.6289,-2.6327,-2.6357,-2.6365,-2.6373,-2.6398,-2.6408,-2.6294,-2.6294,-2.6294,0,-2.6005,-2.6049,-2.6044,-2.6078,-2.6094,-2.6077,-2.6115,-2.6128,-2.6153,-2.6164,-2.6148,-2.6205,-2.6215,-2.6268,-2.6285,-2.6296,-2.6307,-2.6286,-2.6364,-2.6372,-2.6379,-2.6403,-2.6413,-2.6297,-2.6296,-2.6296,-2.6296,0,-2.6085,-2.6116,-2.6144,-2.6171,-2.619,-2.6225,-2.6227,-2.6246,-2.6241,-2.6244,-2.6288,-2.6301,-2.6328,-2.634,-2.6334,-2.6393,-2.6383,-2.6366,-2.6334,-2.6392,-2.6415,-2.6424,-2.63,-2.63,-2.6299,-2.6298,0,0,-2.6165,-2.6192,-2.6202,-2.6215,-2.6236,-2.626,-2.6296,-2.6324,-2.6341,-2.636,-2.639,-2.643,-2.6415,-2.6429,-2.6425,-2.6451,-2.6508,-2.6431,-2.6431,-2.6445,-2.6574,-2.6587,-2.6598,-2.65,-2.6502,-2.6503,-2.6573,0,-2.6229,-2.6292,-2.6291,-2.6349,-2.6378,-2.6365,-2.6396,-2.6413,-2.6418,-2.6443,-2.6449,-2.6478,-2.6455,-2.6464,-2.649,-2.6496,-2.6534,-2.6491,-2.6528,-2.6529,-2.6523,-2.661,-2.6622,-2.6687,-2.6582,-2.6583,-2.6585,0,-2.6311,-2.6335,-2.6397,-2.6416,-2.6428,-2.6456,-2.6483,-2.6507,-2.6527,-2.6529,-2.6547,-2.6539,-2.6576,-2.6546,-2.6597,-2.6568,-2.6584,-2.6589,-2.6592,-2.6594,-2.6559,-2.6614,-2.6708,-2.6717,-2.6599,-2.6597,-2.6596,0,-2.6364,-2.6411,-2.6455,-2.6466,-2.6489,-2.651,-2.652,-2.6538,-2.6555,-2.6579,-2.659,-2.6618,-2.6632,-2.6654,-2.6654,-2.6632,-2.6706,-2.6676,-2.6709,-2.6709,-2.6724,-2.6723,-2.6821,-2.6735,-2.6735,-2.6735,-2.6735,0,-2.6434,-2.6472,-2.6479,-2.6505,-2.6548,-2.6547,-2.659,-2.6599,-2.6615,-2.6643,-2.6633,-2.666,-2.666,-2.6687,-2.6688,-2.6731,-2.6738,-2.674,-2.674,-2.6741,-2.674,-2.6749,-2.6745,-2.6738,-2.6737,-2.6737,-2.6736,0,-2.6499,-2.6505,-2.6551,-2.6571,-2.6577,-2.6608,-2.6624,-2.665,-2.6656,-2.6692,-2.67,-2.6709,-2.6741,-2.6744,-2.6781,-2.6782,-2.6834,-2.6829,-2.6827,-2.6826,-2.6859,-2.6856,-2.6966,-2.6981,-2.6886,-2.6887,-2.6888,0,-2.6543,-2.6572,-2.6596,-2.6615,-2.6627,-2.6657,-2.6676,-2.6677,-2.6697,-2.6723,-2.6746,-2.6777,-2.6802,-2.6855,-2.6864,-2.6893,-2.6888,-2.6925,-2.6892,-2.6893,-2.6888,-2.6886,-2.6889,-2.6931,-2.6932,-2.6932,-2.6933,0,-2.6621,-2.6623,-2.665,-2.668,-2.6703,-2.6726,-2.6747,-2.6763,-2.6767,-2.679,-2.6823,-2.6843,-2.6883,-2.6914,-2.6943,-2.6954,-2.6945,-2.6944,-2.6953,-2.6954,-2.6951,-2.6953,-2.6844,-2.6941,-2.694,-2.6939,-2.6939,-2.6939,-2.6676,-2.6702,-2.6724,-2.6755,-2.6772,-2.6793,-2.6819,-2.6829,-2.6857,-2.689,-2.6889,-2.6926,-2.6947,-2.6985,-2.6999,-2.7028,-2.7015,-2.7029,-2.7032,-2.7035,-2.7038,-2.6948,-2.7033,-2.7033,-2.7033,-2.7033,-2.7033,0,-2.6753,-2.6767,-2.6796,-2.6827,-2.6853,-2.6844,-2.6868,-2.6889,-2.6923,-2.6943,-2.6969,-2.7009,-2.704,-2.7054,-2.7085,-2.7106,-2.7102,-2.7114,-2.7111,-2.7114,-2.7048,-2.7036,-2.7116,-2.7116,-2.7116,-2.7116,-2.7116,-2.7116,-2.6795,-2.684,-2.6845,-2.6898,-2.6912,-2.6949,-2.6964,-2.6984,-2.7,-2.7045,-2.7072,-2.7081,-2.7099,-2.7132,-2.7161,-2.7164,-2.7176,-2.7189,-2.719,-2.7127,-2.7119,-2.7111,-2.71,-2.7192,-2.7192,-2.7255,-2.7255,-2.7256]},{"header":{"parameterUnit":"m.s-1","parameterCategory":1,"la1":30.2991,"la2":30.254,"lo1":-89.0895,"lo2":-89.0444,"dx":0.0017,"dy":0.0017,"nx":28,"ny":28,"refTime":"2022-11-05T15:00:00:Z","depth":0,"parameterNumber":3,"parameterNumberName":"V-component_of_WINDS"},"data":[0,0,0,0,0,0,0,0,0,0,0,0,0,0,0,0,0,0,0,0,0,0,0,0,0,0,0,0,0,0,0,0,0,0,0,0,0,0,0,0,0,0,0,0,0,0,0,0,0,0,0,0,0,0,0,0,0,0,0.7753,0.7753,0,0.776,0.776,0.776,0.7814,0.7815,0.7816,0.7818,0.7818,0.7817,0.7816,0,0,0,0,0,0,0,0,0,0,0,0,0,0.778,0.778,0.7753,0.7753,0.7753,0.776,0.776,0.776,0.7813,0.7815,0.7817,0.7818,0.7818,0.7817,0.7815,0,0,0,0,0,0,0,0,0,0,0,0,0,0.7776,0.7779,0.7752,0.7781,0.7783,0.776,0.776,0.776,0.7813,0.7815,0.7817,0.7819,0.7819,0.7817,0.7815,0.7763,0,0,0.7809,0.7809,0,0,0,0,0,0,0,0,0.7776,0.7775,0.7776,0.7779,0.7781,0.7788,0.777,0.7761,0.7813,0.7801,0.7818,0.782,0.7806,0.7805,0.7802,0.7763,0.7763,0.7809,0.7808,0.7807,0.7807,0,0,0,0,0,0,0,0.7776,0.7775,0.7755,0.7776,0.7779,0.7791,0.7793,0.7768,0.7792,0.7803,0.7807,0.7807,0.7808,0.7804,0.7802,0.7763,0.7809,0.7808,0.7807,0.7806,0.7684,0.7681,0,0,0,0,0,0,0.7773,0.7775,0.7755,0.7755,0.7784,0.7789,0.7791,0.7784,0.7793,0.7796,0.7805,0.781,0.7806,0.7804,0.7802,0.7743,0.7807,0.7806,0.7805,0.7686,0.7683,0.7681,0,0,0,0,0,0,0.7774,0.7771,0.7755,0.7766,0.7765,0.7786,0.7778,0.7783,0.7779,0.7795,0.7799,0.7797,0.7807,0.7805,0.7773,0.7744,0.7805,0.7803,0.7688,0.7685,0.7682,0.7623,0,0,0,0,0,0,0.7774,0.7771,0.7752,0.7765,0.7764,0.7727,0.7776,0.7781,0.7776,0.7782,0.7788,0.7791,0.7809,0.7776,0.7771,0.7742,0.7802,0.7691,0.7687,0.7683,0.7627,0.7618,0.761,0,0,0,0,0,0.7775,0.7734,0.7751,0.7748,0.7742,0.7725,0.7724,0.7747,0.7774,0.7755,0.7765,0.7791,0.7748,0.7772,0.7768,0.7737,0.7693,0.7688,0.7683,0.7631,0.762,0.761,0,0,0,0,0,0,0.7713,0.7736,0.7755,0.7717,0.7719,0.7734,0.771,0.7734,0.7726,0.7732,0.7759,0.776,0.7724,0.7728,0.7754,0.7688,0.7725,0.7719,0.7687,0.7676,0.7667,0.7666,0.78,0,0,0,0,0,0.7696,0.7682,0.7702,0.7666,0.7666,0.7688,0.7682,0.77,0.7702,0.7702,0.771,0.7709,0.7696,0.7686,0.7675,0.7629,0.7631,0.7606,0.7597,0.759,0.7583,0.756,0.7549,0.7665,0.7665,0.7665,0,0,0.7658,0.7669,0.7658,0.7654,0.7658,0.7641,0.7688,0.7669,0.7656,0.7698,0.767,0.7676,0.7677,0.7638,0.7621,0.764,0.7552,0.7583,0.7578,0.7575,0.7554,0.7543,0.7533,0.7662,0.7662,0.7663,0,0,0.7582,0.7589,0.756,0.7564,0.757,0.7585,0.7579,0.7591,0.7597,0.7569,0.7601,0.7586,0.7562,0.7562,0.7559,0.7485,0.7508,0.7481,0.7434,0.7411,0.7402,0.7394,0.7367,0.7357,0.7475,0.7475,0.7475,0,0.7533,0.7512,0.7542,0.7521,0.7518,0.7559,0.753,0.7531,0.7532,0.7528,0.755,0.7523,0.7526,0.7488,0.7471,0.7467,0.7459,0.7479,0.7401,0.7393,0.7386,0.7361,0.7351,0.7472,0.7472,0.7472,0.7473,0,0.7453,0.7438,0.7414,0.7417,0.7411,0.7386,0.7411,0.7402,0.7421,0.7434,0.7405,0.7411,0.7402,0.7395,0.7412,0.736,0.7371,0.7397,0.7434,0.7371,0.7348,0.7339,0.7467,0.7468,0.7469,0.747,0,0,0.7335,0.7357,0.7348,0.735,0.7361,0.7349,0.7326,0.732,0.7312,0.7311,0.7292,0.7273,0.7297,0.7293,0.7311,0.7291,0.7233,0.7319,0.7319,0.7302,0.7175,0.7155,0.7143,0.7249,0.7247,0.7246,0.7175,0,0.7261,0.7225,0.7252,0.721,0.7197,0.7237,0.7216,0.722,0.7232,0.7221,0.7233,0.7219,0.7252,0.725,0.7232,0.7243,0.7207,0.7249,0.7229,0.7228,0.7227,0.7132,0.711,0.7042,0.7166,0.7164,0.7163,0,0.717,0.7169,0.7126,0.7142,0.7138,0.7119,0.7117,0.7106,0.7111,0.7121,0.7119,0.7143,0.712,0.7158,0.7127,0.7155,0.7149,0.7153,0.7151,0.7149,0.7191,0.7126,0.7021,0.7011,0.7149,0.715,0.7151,0,0.7087,0.7076,0.7049,0.705,0.7068,0.7054,0.706,0.7068,0.7063,0.706,0.7058,0.7051,0.7047,0.7041,0.7063,0.7089,0.7028,0.7068,0.7035,0.7034,0.7019,0.7019,0.6911,0.7016,0.7017,0.7017,0.7017,0,0.7002,0.6974,0.7013,0.6996,0.6967,0.6998,0.6967,0.6978,0.6984,0.697,0.7003,0.6988,0.7018,0.7006,0.7022,0.6994,0.6992,0.6998,0.7003,0.6995,0.6994,0.699,0.6995,0.7014,0.7015,0.7015,0.7016,0,0.6904,0.6929,0.6903,0.6923,0.6928,0.6905,0.6921,0.6906,0.6922,0.6903,0.69,0.6923,0.6911,0.6932,0.6921,0.6933,0.6893,0.6905,0.6892,0.6895,0.686,0.6863,0.6745,0.6731,0.6846,0.6845,0.6844,0,0.6847,0.6827,0.6847,0.6841,0.6846,0.6835,0.6832,0.6862,0.6856,0.6862,0.6846,0.6838,0.6832,0.681,0.6825,0.6817,0.6829,0.6788,0.6827,0.682,0.6827,0.6828,0.6826,0.6779,0.6778,0.6776,0.6776,0,0.6743,0.6758,0.6752,0.6752,0.6747,0.6747,0.675,0.6742,0.6775,0.6766,0.6756,0.6752,0.6743,0.6733,0.673,0.6735,0.676,0.6764,0.6755,0.6746,0.6739,0.6742,0.6869,0.6765,0.6766,0.6767,0.6768,0.6768,0.6664,0.6649,0.6661,0.6654,0.666,0.6662,0.6649,0.6665,0.6657,0.6654,0.6672,0.6657,0.6664,0.6663,0.6665,0.6653,0.6671,0.6659,0.6656,0.6652,0.6646,0.6743,0.6652,0.6653,0.6653,0.6653,0.6654,0,0.6562,0.6572,0.6566,0.657,0.6565,0.6593,0.6597,0.659,0.6578,0.6583,0.6578,0.6566,0.6558,0.6573,0.6567,0.6554,0.6566,0.6551,0.6552,0.6553,0.6631,0.6639,0.6542,0.6542,0.6542,0.6542,0.6543,0.6543,0.6508,0.6484,0.65,0.6479,0.6489,0.6477,0.6478,0.6479,0.6484,0.647,0.6465,0.6476,0.6485,0.648,0.6474,0.6478,0.6474,0.6455,0.6464,0.6536,0.6547,0.6557,0.6565,0.6454,0.6454,0.6387,0.6386,0.6385]}]]